Location: Clanezzo
(45.7500°N, 9.6000°E)
Time: 03:28:53
(UTC+00:00)

ESTCUBE 1 - Pass Details

Date: 05 July 2022
Orbit: 646 x 657 km, 97.9° (Epoch: 13 August)

Event Time Altitude Azimuth Distance (km) Brightness Sun altitude
Exits shadow 21:46:10 29° 193° (SSW) 1,191 ? -17.9°
Maximum altitude 21:48:16 57° 259° (W) 769 ? -18.0°
Drops below altitude 10° 21:52:42 10° 339° (NNW) 2,062 ? -18.3°
Sets 21:54:58 0° 343° (NNW) 2,979 ? -18.5°
